Waterfront 5k 2019-20 - Event 15

Tuesday, January 28, 2020 17:47 (GMT+13) - Preliminary results

Race info
Sport: Running
Location: Wellington, New Zealand
Start type: Mass start
Racers: 261
Timed on: iPad
Timed with: Webscorer PRO 4.2
Chip timing: RFID - LLRP
RFID reader: Radiant
Updated: Wednesday, January 29, 2020 09:15 (GMT+13)
Race notes
All data entry done for new runners from tonight - another huge turn out with 262 runners and walker -with another 48 new runners tonight
Show more Show less

Contact organizer

Use this form to send an email to the organizer.

Your name
Your email address
Confirm email address
Message to organizer
Send

Page / 2
Racers per page:
Place Bib Racer name Affiliation Category Gender Finish time
1876Bert PrendergastJohnsonville M20-29M 15:46.5--100%38.30%36.91%
2150Ben TwymanCrofton Downs M20-29M 15:49.4+0:02.9+0.31%99.69%38.11%36.72%
3885Jaspar OrtfeldNgaio M10-19M 16:37.0+0:50.5+5.34%94.93%35.00%33.54%
448Walter SomervilleMount Victoria M30-39M 17:44.7+1:58.2+12.49%88.90%30.59%29.03%
5264Dion YiwHataitai M30-39M 17:49.6+2:03.1+13.01%88.49%30.27%28.70%
6590Charles WiseThorndon M20-29M 17:57.4+2:10.9+13.83%87.85%29.76%28.18%
7910Axel TieKarori M30-39M 17:58.7+2:12.2+13.97%87.74%29.68%28.10%
8225Bevan CoxHataitai M10-19M 17:58.9+2:12.4+13.99%87.73%29.67%28.08%
9571Bram Parmentierte Aro M20-29M 18:05.4+2:18.9+14.68%87.20%29.24%27.65%
10385Paul BarwickMiramar M40-49M 18:12.8+2:26.3+15.46%86.61%28.76%27.16%
1114James Gowerseatoun M40-49M 18:31.9+2:45.4+17.47%85.12%27.51%25.88%
12870Mike CousinsNormandale M40-49M 18:35.5+2:49.0+17.86%84.85%27.28%25.64%
13443JOHN CREWEIsland Bay M20-29M 18:36.2+2:49.7+17.93%84.80%27.23%25.60%
14856George WhitworthWellington M30-39M 18:46.7+3:00.2+19.04%84.01%26.55%24.90%
15666Annie BondNewtown F30-39F 18:52.2+3:05.7+19.62%83.60%26.19%24.53%
16584Matthew CryerKarori M30-39M 18:54.1+3:07.6+19.82%83.46%26.07%24.40%
17358Hartley Malcolm-StevensBrooklyn M30-39M 18:59.0+3:12.5+20.34%83.10%25.75%24.08%
18356Richard ClaesKelburn M30-39M 19:13.1+3:26.6+21.83%82.08%24.83%23.14%
19871Harry PolandKelburn M20-29M 19:15.8+3:29.3+22.11%81.89%24.65%22.96%
20254Nick PerryKarori M40-49M 19:21.9+3:35.4+22.76%81.46%24.25%22.55%
21815Lorcan ByrneM20-29M 19:23.9+3:37.4+22.97%81.32%24.12%22.42%
22893Giles PearsonThorndon M50-59M 19:28.1+3:41.6+23.41%81.03%23.85%22.14%
23912Will CritchlowKelburn M30-39M 19:31.0+3:44.5+23.72%80.83%23.66%21.94%
24193Sophie DicksonKarori F30-39F 19:33.0+3:46.5+23.93%80.69%23.53%21.81%
25248Neil LynchOriedntal Bay M30-39M 19:36.6+3:50.1+24.31%80.44%23.30%21.57%
26147Jonathon JacksonWellington M20-29M 19:43.4+3:56.9+25.03%79.98%22.85%21.12%
27182Alex BroughWellington M-unknownM 19:47.6+4:01.1+25.47%79.70%22.58%20.84%
28676Phil WallPorirua M50-59M 19:51.3+4:04.8+25.86%79.45%22.34%20.59%
2926Andreas StockingerHataitai M20-29M 19:53.1+4:06.6+26.05%79.33%22.22%20.47%
30239Matthew WilsonWellington Central M30-39M 19:53.3+4:06.8+26.08%79.32%22.21%20.46%
311406Bill WangM-unknownM 19:54.5+4:08.0+26.20%79.24%22.13%20.38%
32318Matt VeldeKingston M40-49M 19:57.1+4:10.6+26.48%79.07%21.96%20.20%
33869Bridget KiddleKarori F20-29F 19:57.7+4:11.2+26.54%79.03%21.92%20.16%
3449Brendan HaileHataitai M30-39M 19:58.9+4:12.4+26.67%78.95%21.84%20.08%
356Jamie Te Hiwite Aro M40-49M 19:59.4+4:12.9+26.72%78.91%21.81%20.05%
36231Wayne PatrickHighbury M40-49M 19:59.5+4:13.0+26.73%78.91%21.80%20.04%
37536Nicola HankinsonNewlands F40-49F 20:03.0+4:16.5+27.10%78.68%21.58%19.81%
38820Hooman BahreiniMelrose M30-39M 20:06.2+4:19.7+27.44%78.47%21.37%19.60%
39610Harry BarnesTawa M30-39M 20:08.0+4:21.5+27.63%78.35%21.25%19.48%
402000Pacer 20 minutesF/M00-09F/M 20:08.2+4:21.7+27.65%78.34%21.24%19.46%
41731Mal VirideWellington M-unknownM 20:08.6+4:22.1+27.69%78.31%21.21%19.44%
4224Bex HutchinsonMount Victoria F20-29F 20:16.6+4:30.1+28.54%77.80%20.69%18.90%
43879Denny Adamson BarklaHataitai M20-29M 20:19.0+4:32.5+28.79%77.65%20.53%18.74%
4456Alistair CollowMount Victoria M20-29M 20:35.9+4:49.4+30.58%76.58%19.43%17.62%
45186Claudia HarrisonHataitai F30-39F 20:43.1+4:56.6+31.34%76.14%18.96%17.14%
46482Isaac Moffat-YoungWellington M20-29M 20:43.9+4:57.4+31.42%76.09%18.91%17.08%
47289Ronan McIlvennyNewtown M20-29M 21:04.2+5:17.7+33.57%74.87%17.59%15.73%
48728Tawhai MossEpuni M-unknownM 21:05.3+5:18.8+33.68%74.80%17.51%15.66%
49582Rutger MaasdamNgaio M20-29M 21:13.3+5:26.8+34.53%74.33%16.99%15.12%
50581Iain ShawNgaio M30-39M 21:14.4+5:27.9+34.64%74.27%16.92%15.05%
5163Karl JacksonSouthgate M30-39M 21:19.0+5:32.5+35.13%74.00%16.62%14.74%
52364Simon TemplemanNgaio M30-39M 21:20.0+5:33.5+35.24%73.95%16.56%14.68%
53891Jemma ClarryBury St Edmunds F20-29F 21:24.5+5:38.0+35.71%73.69%16.26%14.38%
54909Phelim O'LearyHataitai M20-29M 21:24.9+5:38.4+35.75%73.66%16.24%14.35%
55404Kasey MacKinnonMount Cook F20-29F 21:40.9+5:54.4+37.44%72.76%15.19%13.28%
56863Roy McKeeThorndon M20-29M 21:43.0+5:56.5+37.67%72.64%15.06%13.14%
57454Ben DaviesWellington M20-29M 21:43.5+5:57.0+37.72%72.61%15.02%13.11%
58101Jarred CampbellWellington M20-29M 21:59.0+6:12.5+39.36%71.76%14.01%12.08%
59347Joel MacManusNewtown M20-29M 21:59.6+6:13.1+39.42%71.73%13.97%12.04%
6078Antony PaltridgeWellington Central M50-59M 22:02.1+6:15.6+39.68%71.59%13.81%11.87%
61297Jordan CollinsMornington M30-39M 22:02.2+6:15.7+39.69%71.59%13.80%11.87%
62802Marseille BowieWellington F10-19F 22:03.3+6:16.8+39.81%71.53%13.73%11.79%
63184Ben Currante Aro M20-29M 22:04.5+6:18.0+39.94%71.46%13.65%11.71%
64670Betty HarpHataitai F50-59F 22:06.4+6:19.9+40.14%71.36%13.53%11.59%
65821Tom RobinsonBerhampore M20-29M 22:06.9+6:20.4+40.19%71.33%13.50%11.55%
66719Sam GwynnMelrose M30-39M 22:07.1+6:20.6+40.21%71.32%13.49%11.54%
67203Timon WalkeyWellington M30-39M 22:09.4+6:22.9+40.45%71.20%13.34%11.39%
68825Susan ClareHataitai F40-49F 22:14.5+6:28.0+40.99%70.93%13.00%11.05%
6957Simon BidwellMount Cook M40-49M 22:16.1+6:29.6+41.16%70.84%12.90%10.94%
70346Lesa DavidsonHataitai F40-49F 22:21.8+6:35.3+41.76%70.54%12.53%10.56%
71622James TurnerHighbury M50-59M 22:25.5+6:39.0+42.16%70.35%12.29%10.31%
722230Pacer 22 minutes, 30 secondsF/M00-09F/M 22:26.6+6:40.1+42.27%70.29%12.21%10.24%
73901Jennifer MattlinKarori F30-39F 22:32.3+6:45.8+42.87%69.99%11.84%9.86%
74278Ben MorrowMount Victoria M20-29M 22:33.6+6:47.1+43.01%69.92%11.76%9.77%
75411Micael ArcherWellington M30-39M 22:50.7+7:04.2+44.82%69.05%10.64%8.63%
76579Sam TurnerMount Cook M30-39M 22:51.4+7:04.9+44.89%69.02%10.60%8.59%
77805Robert PattersonWellington M20-29M 22:51.5+7:05.0+44.90%69.01%10.59%8.58%
782Chris JamesHataitai M30-39M 22:53.9+7:07.4+45.16%68.89%10.43%8.42%
7933Sarah FountainKhandallah F30-39F 22:54.0+7:07.5+45.17%68.89%10.43%8.41%
79104Clare McKinlayVogeltown F30-39F 22:54.0+7:07.5+45.17%68.89%10.43%8.41%
81781Janette LandersWellington F30-39F 22:57.2+7:10.7+45.50%68.73%10.22%8.20%
82305Ming Shang NgWellington M20-29M 22:58.8+7:12.3+45.67%68.65%10.12%8.09%
8362James Kimte Aro M20-29M 22:59.4+7:12.9+45.74%68.62%10.08%8.05%
84860Kayvan BahreiniM30-39M 22:59.6+7:13.1+45.76%68.61%10.06%8.04%
8567Sophie CostelloMount Victoria F20-29F 23:01.3+7:14.8+45.94%68.52%9.95%7.93%
8636Fred MwilaTawa M50-59M 23:04.5+7:18.0+46.28%68.36%9.74%7.71%
8758Michael O'Connorte Aro M30-39M 23:08.8+7:22.3+46.73%68.15%9.46%7.43%
87365Lucy LawlorParaparaumu F30-39F 23:08.8+7:22.3+46.73%68.15%9.46%7.43%
89144Stephen BakerKhandallah M40-49M 23:13.0+7:26.5+47.17%67.95%9.19%7.15%
9013Sebastien BrachetWellington M30-39M 23:15.4+7:28.9+47.43%67.83%9.03%6.99%
91674Theo WallPorirua M00-09M 23:15.5+7:29.0+47.44%67.83%9.03%6.98%
9264Kristina CameronParaparaumu F30-39F 23:17.9+7:31.4+47.69%67.71%8.87%6.82%
93658Danny EyreKingston M30-39M 23:22.2+7:35.7+48.15%67.50%8.59%6.53%
94775Toby Aikman-NordonWellington M10-19M 23:36.4+7:49.9+49.65%66.82%7.66%5.59%
95849Mark HerridgeNewtown M30-39M 23:39.0+7:52.5+49.92%66.70%7.49%5.41%
96841Elisha PriceWellington F20-29F 23:42.0+7:55.5+50.24%66.56%7.30%5.21%
97852Hamish McCawHataitai M50-59M 23:46.8+8:00.3+50.74%66.34%6.99%4.89%
9846Amanda ChenAro Valley F20-29F 23:48.0+8:01.5+50.87%66.28%6.91%4.81%
99448David RileyKhandallah M30-39M 23:50.1+8:03.6+51.09%66.18%6.77%4.67%
100470Chris BaldasIsland Bay M30-39M 23:53.7+8:07.2+51.47%66.02%6.54%4.43%
10137Aaron GillKarori M40-49M 23:59.7+8:13.2+52.11%65.74%6.14%4.03%
102244Gemma GouldMount Cook F30-39F 23:59.9+8:13.4+52.13%65.73%6.13%4.02%
103889Katie BudgenKelburn F20-29F 24:00.3+8:13.8+52.17%65.72%6.11%3.99%
104282Matt StansfieldThorndon M20-29M 24:05.3+8:18.8+52.70%65.49%5.78%3.66%
105851Jason LiThorndon M20-29M 24:05.8+8:19.3+52.75%65.47%5.75%3.63%
106229Aine O'DeaNewtown F20-29F 24:12.6+8:26.1+53.47%65.16%5.30%3.17%
1072344Jason Chengte Aro M30-39M 24:13.3+8:26.8+53.54%65.13%5.26%3.13%
108868Louis BarnettHataitai M10-19M 24:13.8+8:27.3+53.60%65.11%5.23%3.09%
109875Samuel PollockHataitai M10-19M 24:15.1+8:28.6+53.73%65.05%5.14%3.01%
110447Aoife Ni DheaNewtown F20-29F 24:18.1+8:31.6+54.05%64.91%4.95%2.81%
11122Frank ColeBrooklyn M50-59M 24:18.8+8:32.3+54.13%64.88%4.90%2.76%
11279Matt ColesKelburn M50-59M 24:19.0+8:32.5+54.15%64.87%4.89%2.75%
113896Maree CarsonWellington F30-39F 24:19.6+8:33.1+54.21%64.85%4.85%2.71%
1142384Brent Golderte Aro M30-39M 24:22.7+8:36.2+54.54%64.71%4.65%2.50%
115240Jurgen BurgerM20-29M 24:30.1+8:43.6+55.32%64.38%4.16%2.01%
11668Chris LeeM30-39M 24:34.2+8:47.7+55.75%64.20%3.90%1.73%
117440Luca SansonBrooklyn M10-19M 24:34.3+8:47.8+55.76%64.20%3.89%1.73%
11884Tim BaileyNewtown M30-39M 24:36.1+8:49.6+55.95%64.12%3.77%1.61%
119695Lauren EllisMount Cook F20-29F 24:36.7+8:50.2+56.02%64.10%3.73%1.57%
120272Frank GrieveAro Valley M30-39M 24:37.3+8:50.8+56.08%64.07%3.69%1.53%
12170Shinichi MuroyaKarori M50-59M 24:40.4+8:53.9+56.41%63.94%3.49%1.32%
122188Chris JenkinsonWellington Central M30-39M 24:41.0+8:54.5+56.47%63.91%3.45%1.28%
123518Warren KingThorndon M-unknownM 24:42.2+8:55.7+56.60%63.86%3.37%1.20%
124877Belinda Hutchinsonseatoun F50-59F 24:49.0+9:02.5+57.32%63.57%2.93%0.75%
1242500Pacer 25 minutesF/M00-09F/M 24:49.0+9:02.5+57.32%63.57%2.93%0.75%
126113Danielle TrewoonHataitai F20-29F 24:49.1+9:02.6+57.33%63.56%2.92%0.74%
127321Adam LawlorParaparaumu M30-39M 24:49.8+9:03.3+57.40%63.53%2.88%0.69%
128327Timothy YoungWellington M30-39M 24:54.7+9:08.2+57.92%63.32%2.56%0.37%
129375Natasha KowalakPinehaven F30-39F 24:57.0+9:10.5+58.16%63.23%2.41%0.21%
130800Matt ReidPinehaven M30-39M 24:57.1+9:10.6+58.17%63.22%2.40%0.21%
131198Justin YoungNewtown M30-39M 25:00.2+9:13.7+58.50%63.09%2.20%0.00%
13223Greg MaxtedPaparangi M30-39M 25:00.9+9:14.4+58.57%63.06%2.16%-0.05%
13340Kath LittlerTawa F40-49F 25:02.8+9:16.3+58.77%62.98%2.03%-0.17%
134560Rob SansonBrooklyn M40-49M 25:12.8+9:26.3+59.83%62.57%1.38%-0.84%
135256Marketa Langovate Aro F40-49F 25:15.7+9:29.2+60.14%62.45%1.19%-1.03%
13618Adam BennettsAro Valley M40-49M 25:24.4+9:37.9+61.06%62.09%0.62%-1.61%
137298Benjamin McKayMount Victoria M30-39M 25:29.4+9:42.9+61.58%61.89%0.30%-1.95%
138548Samuel OldAro Valley M20-29M 25:30.5+9:44.0+61.70%61.84%0.23%-2.02%
139725Cheryl HenriksenRoseneath F30-39F 25:34.4+9:47.9+62.11%61.69%-0.03%-2.28%
140112Anna BreenWellington F20-29F 25:41.0+9:54.5+62.81%61.42%-0.46%-2.72%
141904Saul ButlerKarori M50-59M 25:41.8+9:55.3+62.89%61.39%-0.51%-2.77%
142405Dennis HardieWilton M60-69M 25:47.4+10:00.9+63.49%61.17%-0.88%-3.15%
143866Steve KeatsBerhamphore M40-49M 25:55.9+10:09.4+64.38%60.83%-1.43%-3.71%
144907Mason LongdillPlimmerton M20-29M 26:04.5+10:18.0+65.29%60.50%-1.99%-4.29%
14554Rose FrendinTitahi Bay F20-29F 26:05.9+10:19.4+65.44%60.44%-2.08%-4.38%
146874Freya PollockHataitai F00-09F 26:07.7+10:21.2+65.63%60.38%-2.20%-4.50%
147542Anna Kootte Aro F30-39F 26:11.9+10:25.4+66.08%60.21%-2.47%-4.78%
148255Nick WillmottNgaio M30-39M 26:17.4+10:30.9+66.66%60.00%-2.83%-5.15%
149757Jenny BromleyKapiti F40-49F 26:18.2+10:31.7+66.74%59.97%-2.88%-5.20%
15061Karen JenkinsonHataitai F50-59F 26:23.2+10:36.7+67.27%59.78%-3.21%-5.53%
151643Phil GoodwinBrooklyn M50-59M 26:23.6+10:37.1+67.31%59.77%-3.24%-5.56%
15255Don McLaren-SmithKelburn M50-59M 26:26.7+10:40.2+67.64%59.65%-3.44%-5.77%
152903Elwin AlcazarMt Cook, Wellington M30-39M 26:26.7+10:40.2+67.64%59.65%-3.44%-5.77%
154316Rachael WookeyIsland Bay F20-29F 26:27.8+10:41.3+67.75%59.61%-3.51%-5.84%
15530Jhowei Gomeste Aro M30-39M 26:30.4+10:43.9+68.03%59.51%-3.68%-6.01%
15672Sam OlivecronaMount Cook M20-29M 26:44.4+10:57.9+69.51%58.99%-4.59%-6.95%
15710Jessica JonesKingston F40-49F 26:45.2+10:58.7+69.59%58.96%-4.64%-7.00%
158145Lawrence ChuNewtown M20-29M 26:48.9+11:02.4+69.98%58.83%-4.89%-7.25%
159878Gareth Hutchinsonseatoun M50-59M 26:49.5+11:03.0+70.05%58.81%-4.92%-7.29%
160760Gregor CosterKarori M70-79M 26:53.2+11:06.7+70.44%58.67%-5.17%-7.53%
161251Julia KennedyNorthland F40-49F 26:55.7+11:09.2+70.70%58.58%-5.33%-7.70%
1629Paul JohansonAro Valley M30-39M 26:56.2+11:09.7+70.76%58.56%-5.36%-7.73%
163883Annette FranklinChurton Park F30-39F 27:03.1+11:16.6+71.48%58.31%-5.81%-8.19%
164718Krystle PrenterHataitai F30-39F 27:04.2+11:17.7+71.60%58.27%-5.88%-8.27%
165882Peter RamagePetone M30-39M 27:12.8+11:26.3+72.51%57.97%-6.44%-8.84%
16639Kyle SchwartzIsland Bay M30-39M 27:22.0+11:35.5+73.48%57.64%-7.04%-9.45%
166524Leo BrowningAro Valley M20-29M 27:22.0+11:35.5+73.48%57.64%-7.04%-9.45%
16816Jaime VessiotStrathmore Park F30-39F 27:25.2+11:38.7+73.82%57.53%-7.25%-9.67%
169460Sonya GilesWellington F20-29F 27:26.4+11:39.9+73.95%57.49%-7.33%-9.75%
170317Angus HawkinsIsland Bay M20-29M 27:27.0+11:40.5+74.01%57.47%-7.37%-9.79%
17125Emma BassettNorthland F30-39F 27:27.8+11:41.3+74.09%57.44%-7.42%-9.84%
172463Caroline LordThorndon F-unknownF 27:28.4+11:41.9+74.16%57.42%-7.46%-9.88%
173887Charlie KeelingWellington F20-29F 27:28.9+11:42.4+74.21%57.40%-7.49%-9.91%
17469Lindsay Youngte Aro F30-39F 27:30.8+11:44.3+74.41%57.34%-7.62%-10.04%
175621Trica SloanAro Valley F50-59F 27:33.3+11:46.8+74.68%57.25%-7.78%-10.21%
1762730Pacer 27 minutes, 30 secondsF/M00-09F/M 27:34.0+11:47.5+74.75%57.22%-7.83%-10.25%
177681Dan PriceCrofton Downs M30-39M 27:34.6+11:48.1+74.81%57.20%-7.86%-10.29%
178727Colin RobinsonKelburn M-unknownM 27:39.4+11:52.9+75.32%57.04%-8.18%-10.61%
179408Marian McDonaldF50-59F 27:41.3+11:54.8+75.52%56.97%-8.30%-10.74%
180685Ralph DickinsonWellington M60-69M 27:45.1+11:58.6+75.92%56.84%-8.55%-10.99%
18129Denise PilcherNgaio F50-59F 27:53.8+12:07.3+76.84%56.55%-9.12%-11.57%
182139Ryan McCarvillWellington M30-39M 27:58.1+12:11.6+77.30%56.40%-9.40%-11.86%
183897Isaac WallPorirua M10-19M 28:07.8+12:21.3+78.32%56.08%-10.03%-12.50%
184913Lauren Smithte Aro F20-29F 28:10.9+12:24.4+78.65%55.98%-10.23%-12.71%
185326Nick DavisBroadmeadows M30-39M 28:13.2+12:26.7+78.89%55.90%-10.38%-12.86%
186324Tim SwanM30-39M 28:20.9+12:34.4+79.70%55.65%-10.88%-13.38%
187280Ethan AbbeyRoseneath M30-39M 28:25.7+12:39.2+80.21%55.49%-11.20%-13.70%
18834Allison Groveste Aro F50-59F 28:26.8+12:40.3+80.33%55.45%-11.27%-13.77%
189406Sophie IvoryBrooklyn F30-39F 28:33.0+12:46.5+80.98%55.25%-11.67%-14.18%
190809Nataly NoguerEpuni F30-39F 28:33.2+12:46.7+81.00%55.25%-11.68%-14.20%
19135Michael Sovikte Aro M50-59M 28:35.7+12:49.2+81.27%55.17%-11.85%-14.36%
192397Jenny LoveNorthland F30-39F 28:36.2+12:49.7+81.32%55.15%-11.88%-14.40%
193219Fiona MacmasterHataitai F50-59F 28:39.2+12:52.7+81.64%55.05%-12.08%-14.60%
194758Nicola StevensonWellington F40-49F 28:44.2+12:57.7+82.17%54.90%-12.40%-14.93%
195464Siofra FogartyWellington F20-29F 28:46.0+12:59.5+82.36%54.84%-12.52%-15.05%
196905Julie SwindenKarori F40-49F 28:49.2+13:02.7+82.69%54.74%-12.73%-15.26%
197772Marina SmithWellington F50-59F 28:49.7+13:03.2+82.75%54.72%-12.76%-15.30%
198213Ruth McKinlayKelburn F20-29F 28:57.2+13:10.7+83.54%54.48%-13.25%-15.80%
199631Kate FreemanNewtown F20-29F 28:58.5+13:12.0+83.68%54.44%-13.33%-15.88%
200673Lynn GestroPorirua F40-49F 29:02.2+13:15.7+84.07%54.33%-13.58%-16.13%
201283Geraldine DuobaMaungaraki F40-49F 29:02.7+13:16.2+84.12%54.31%-13.61%-16.16%
202172Rebecca DawsonKarori F20-29F 29:03.0+13:16.5+84.15%54.30%-13.63%-16.18%
203729Chelsea HaughtonMiramar F20-29F 29:03.6+13:17.1+84.22%54.28%-13.67%-16.22%
204308Sophia NobleWellington F20-29F 29:11.1+13:24.6+85.01%54.05%-14.16%-16.72%
205679Kirsty HuntAro Valley F40-49F 29:11.5+13:25.0+85.05%54.04%-14.18%-16.75%
206898Gretta O'ConnellOwhiro Bay F30-39F 29:16.9+13:30.4+85.62%53.87%-14.53%-17.11%
207892Emily FisherNgaio F10-19F 29:17.2+13:30.7+85.65%53.86%-14.55%-17.13%
208574Tasmin LeungWellington F10-19F 29:17.8+13:31.3+85.72%53.85%-14.59%-17.17%
209899Linda WilliamsIsland Bay F30-39F 29:19.0+13:32.5+85.84%53.81%-14.67%-17.25%
210671Ferne CheethamAro Valley F20-29F 29:24.3+13:37.8+86.40%53.65%-15.02%-17.60%
211894Tracy GrayWellington F40-49F 29:25.8+13:39.3+86.56%53.60%-15.11%-17.70%
212465Emily MussonMount Victoria F20-29F 29:28.2+13:41.7+86.81%53.53%-15.27%-17.86%
213368Kahurangi GrahamKelburn F20-29F 29:31.1+13:44.6+87.12%53.44%-15.46%-18.06%
214535Alex TapperKelburn F20-29F 29:34.8+13:48.3+87.51%53.33%-15.70%-18.30%
21552Nicci Stilwellte Aro F30-39F 29:35.0+13:48.5+87.53%53.32%-15.71%-18.32%
216890Alan Vander molenM-unknownM 29:37.5+13:51.0+87.80%53.25%-15.88%-18.48%
217178Laurence FeehanKarori M60-69M 29:37.9+13:51.4+87.84%53.24%-15.90%-18.51%
218106Willie StephensEastbourne M30-39M 29:38.8+13:52.3+87.93%53.21%-15.96%-18.57%
219311Alissa CaitNorthland F30-39F 29:42.9+13:56.4+88.37%53.09%-16.23%-18.84%
220134Dael WilliamsF50-59F 29:45.9+13:59.4+88.68%53.00%-16.42%-19.04%
221850Sarah ButlerBerhampore F30-39F 29:48.5+14:02.0+88.96%52.92%-16.59%-19.22%
222114Michelle KnightMount Cook F30-39F 29:55.9+14:09.4+89.74%52.70%-17.08%-19.71%
222881Kara Knightte Aro F30-39F 29:55.9+14:09.4+89.74%52.70%-17.08%-19.71%
2243000Pacer 30 minutesF/M00-09F/M 29:57.1+14:10.6+89.87%52.67%-17.15%-19.79%
22571Jasmine SmithHataitai F20-29F 29:57.7+14:11.2+89.93%52.65%-17.19%-19.83%
225914Ketan PatelRoseneath M20-29M 29:57.7+14:11.2+89.93%52.65%-17.19%-19.83%
22745Laura ThompsonBrooklyn F20-29F 30:25.0+14:38.5+92.82%51.86%-18.97%-21.65%
228886Fiona chanKhandallah F40-49F 30:31.7+14:45.2+93.52%51.67%-19.41%-22.10%
22942Oonagh MorleyNewtown F20-29F 30:48.2+15:01.7+95.27%51.21%-20.49%-23.20%
23031Bevan Wallacete Aro M60-69M 30:49.6+15:03.1+95.41%51.17%-20.58%-23.29%
231116David O'BrienHataitai M30-39M 31:06.7+15:20.2+97.22%50.70%-21.69%-24.43%
232508Paul JakobsPorirua M50-59M 31:14.1+15:27.6+98.00%50.50%-22.17%-24.92%
233109Julie RyanTawa F50-59F 31:21.0+15:34.5+98.73%50.32%-22.62%-25.38%
234867Keith VincentHavelock North M60-69M 31:34.5+15:48.0+100.16%49.96%-23.50%-26.28%
23553Megan LeversBerhampore F30-39F 31:49.9+16:03.4+101.79%49.56%-24.51%-27.31%
236873Jennifer TurnerHataitai F50-59F 31:50.1+16:03.6+101.81%49.55%-24.52%-27.32%
237908Tess TuxfordNewtown F20-29F 31:54.4+16:07.9+102.26%49.44%-24.80%-27.61%
238268Liz MorrisonKilbirnie F70-79F 31:59.3+16:12.8+102.78%49.31%-25.12%-27.94%
239410Maeve MagennisAro Valley F20-29F 32:01.7+16:15.2+103.03%49.25%-25.28%-28.10%
24059Katrina MichelsonMount Victoria F50-59F 32:11.6+16:25.1+104.08%49.00%-25.92%-28.76%
24177Don StevensNorthland M50-59M 32:15.9+16:29.4+104.53%48.89%-26.20%-29.04%
242847Marie-Joelle BastienWaikanae F30-39F 32:16.8+16:30.3+104.63%48.87%-26.26%-29.10%
243153Mireille ConsalveyF40-49F 32:19.7+16:33.2+104.93%48.80%-26.45%-29.30%
244865Helen GowerBreaker Bay F40-49F 32:43.3+16:56.8+107.43%48.21%-27.99%-30.87%
245199Anne TaylorJohnsonville F70-79F 32:51.7+17:05.2+108.31%48.00%-28.54%-31.43%
246234Rachel KirbyNewtown F20-29F 33:01.0+17:14.5+109.30%47.78%-29.14%-32.05%
247733Sam SmallLower Hutt F20-29F 33:26.2+17:39.7+111.96%47.18%-30.79%-33.73%
248136Tamsin RoysonHataitai F40-49F 33:36.7+17:50.2+113.07%46.93%-31.47%-34.43%
24938Laura FeaseyKarori F40-49F 33:42.3+17:55.8+113.66%46.80%-31.84%-34.80%
25020Helen MajorhaziKelson F40-49F 33:51.7+18:05.2+114.65%46.59%-32.45%-35.43%
Page / 2
Racers per page: